TimeAKST,TemperatureF,Dew PointF,Humidity,Sea Level PressureIn,VisibilityMPH,Wind Direction,Wind SpeedMPH,Gust SpeedMPH,PrecipitationIn,Events,Conditions,WindDirDegrees,DateUTC
12:16 AM,35.6,24.8,65,30.12,10.0,SSE,3.5,-,N/A,,Overcast,150,2013-02-17 09:16:00
12:36 AM,35.6,24.8,65,30.12,10.0,Calm,Calm,-,N/A,,Overcast,0,2013-02-17 09:36:00
12:56 AM,35.6,26.6,70,30.12,10.0,East,6.9,-,N/A,,Overcast,100,2013-02-17 09:56:00
1:16 AM,35.6,26.6,70,30.11,10.0,East,8.1,-,N/A,,Overcast,80,2013-02-17 10:16:00
1:36 AM,35.6,26.6,70,30.11,10.0,East,6.9,-,N/A,,Overcast,100,2013-02-17 10:36:00
1:56 AM,35.6,26.6,70,30.10,10.0,ESE,8.1,-,N/A,,Overcast,110,2013-02-17 10:56:00
2:16 AM,35.6,26.6,70,30.10,10.0,ESE,8.1,-,N/A,,Overcast,110,2013-02-17 11:16:00
2:36 AM,35.6,26.6,70,30.09,10.0,ESE,10.4,-,N/A,,Overcast,120,2013-02-17 11:36:00
2:56 AM,35.6,26.6,70,30.08,10.0,ESE,12.7,-,N/A,,Overcast,120,2013-02-17 11:56:00
3:16 AM,35.6,26.6,70,30.07,10.0,SE,9.2,-,N/A,,Overcast,130,2013-02-17 12:16:00
3:36 AM,35.6,26.6,70,30.07,10.0,SE,8.1,-,N/A,,Overcast,130,2013-02-17 12:36:00
3:56 AM,35.6,26.6,70,30.06,10.0,SE,10.4,-,N/A,,Overcast,140,2013-02-17 12:56:00
4:16 AM,35.6,26.6,70,30.05,10.0,SSE,9.2,-,N/A,,Overcast,150,2013-02-17 13:16:00
4:36 AM,35.6,24.8,65,30.04,10.0,SSE,9.2,-,N/A,,Overcast,150,2013-02-17 13:36:00
4:56 AM,35.6,26.6,70,30.03,10.0,SE,9.2,-,N/A,,Overcast,140,2013-02-17 13:56:00
5:16 AM,35.6,26.6,70,30.02,10.0,SE,12.7,16.1,N/A,,Overcast,130,2013-02-17 14:16:00
5:36 AM,35.6,26.6,70,30.01,10.0,ESE,9.2,-,N/A,,Overcast,120,2013-02-17 14:36:00
5:56 AM,35.6,26.6,70,30.00,10.0,SE,11.5,-,N/A,,Overcast,140,2013-02-17 14:56:00
6:16 AM,35.6,26.6,70,29.99,9.0,ESE,11.5,-,N/A,,Overcast,120,2013-02-17 15:16:00
6:36 AM,35.6,26.6,70,29.97,10.0,SE,15.0,18.4,N/A,,Overcast,130,2013-02-17 15:36:00
6:56 AM,35.6,26.6,70,29.96,10.0,SE,17.3,20.7,N/A,,Overcast,140,2013-02-17 15:56:00
7:16 AM,35.6,26.6,70,29.96,10.0,SE,15.0,19.6,N/A,,Overcast,140,2013-02-17 16:16:00
7:36 AM,35.6,26.6,70,29.95,10.0,SE,12.7,-,N/A,,Overcast,140,2013-02-17 16:36:00
7:56 AM,35.6,26.6,70,29.94,9.0,SE,12.7,-,N/A,,Overcast,130,2013-02-17 16:56:00
8:16 AM,35.6,28.4,75,29.94,7.0,SE,11.5,-,N/A,,Overcast,130,2013-02-17 17:16:00
8:36 AM,35.6,26.6,70,29.93,10.0,ESE,12.7,-,N/A,,Overcast,120,2013-02-17 17:36:00
8:56 AM,35.6,28.4,75,29.92,10.0,SE,10.4,-,N/A,,Overcast,130,2013-02-17 17:56:00
9:16 AM,35.6,28.4,75,29.91,10.0,SE,11.5,-,N/A,,Overcast,130,2013-02-17 18:16:00
9:36 AM,35.6,28.4,75,29.91,10.0,SE,15.0,19.6,N/A,,Overcast,130,2013-02-17 18:36:00
9:56 AM,35.6,28.4,75,29.90,10.0,SE,11.5,-,N/A,,Mostly Cloudy,130,2013-02-17 18:56:00
10:16 AM,35.6,28.4,75,29.90,10.0,SE,15.0,18.4,N/A,,Overcast,130,2013-02-17 19:16:00
10:36 AM,35.6,28.4,75,29.89,10.0,SE,16.1,20.7,N/A,,Overcast,140,2013-02-17 19:36:00
10:56 AM,37.4,28.4,70,29.88,10.0,SE,16.1,23.0,N/A,,Overcast,140,2013-02-17 19:56:00
11:16 AM,37.4,28.4,70,29.88,10.0,SE,13.8,23.0,N/A,,Overcast,130,2013-02-17 20:16:00
11:36 AM,37.4,28.4,70,29.86,10.0,SE,13.8,20.7,N/A,,Overcast,130,2013-02-17 20:36:00
11:56 AM,37.4,26.6,65,29.85,10.0,SE,18.4,24.2,N/A,,Scattered Clouds,140,2013-02-17 20:56:00
12:16 PM,37.4,28.4,70,29.84,10.0,ESE,13.8,-,N/A,,Mostly Cloudy,120,2013-02-17 21:16:00
12:36 PM,37.4,28.4,70,29.84,10.0,ESE,15.0,19.6,N/A,,Overcast,120,2013-02-17 21:36:00
12:56 PM,37.4,26.6,65,29.83,10.0,SE,19.6,-,N/A,,Overcast,130,2013-02-17 21:56:00
1:16 PM,37.4,26.6,65,29.81,10.0,SE,15.0,-,N/A,,Overcast,130,2013-02-17 22:16:00
1:36 PM,37.4,26.6,65,29.81,10.0,SE,15.0,-,N/A,,Overcast,130,2013-02-17 22:36:00
1:56 PM,37.4,26.6,65,29.80,10.0,ESE,15.0,21.9,N/A,,Overcast,120,2013-02-17 22:56:00
2:16 PM,37.4,26.6,65,29.79,10.0,SE,16.1,24.2,N/A,,Mostly Cloudy,140,2013-02-17 23:16:00
2:36 PM,37.4,26.6,65,29.78,10.0,ESE,11.5,16.1,N/A,,Mostly Cloudy,120,2013-02-17 23:36:00
2:56 PM,37.4,26.6,65,29.77,10.0,SE,16.1,-,N/A,,Mostly Cloudy,130,2013-02-17 23:56:00
3:16 PM,37.4,26.6,65,29.77,10.0,SE,15.0,20.7,N/A,,Mostly Cloudy,130,2013-02-18 00:16:00
3:36 PM,39.2,26.6,61,29.76,10.0,SE,17.3,21.9,N/A,,Overcast,130,2013-02-18 00:36:00
3:56 PM,39.2,26.6,61,29.75,10.0,ESE,12.7,-,N/A,,Overcast,120,2013-02-18 00:56:00
4:16 PM,39.2,26.6,61,29.74,10.0,ESE,11.5,19.6,N/A,,Overcast,120,2013-02-18 01:16:00
4:36 PM,39.2,26.6,61,29.72,10.0,ESE,10.4,-,N/A,,Overcast,120,2013-02-18 01:36:00
4:56 PM,39.2,26.6,61,29.71,10.0,SE,11.5,-,N/A,,Overcast,130,2013-02-18 01:56:00
5:16 PM,39.2,26.6,61,29.70,10.0,ESE,10.4,21.9,N/A,,Overcast,110,2013-02-18 02:16:00
5:36 PM,37.4,26.6,65,29.69,10.0,ESE,6.9,-,N/A,,Overcast,110,2013-02-18 02:36:00
5:56 PM,37.4,26.6,65,29.69,10.0,ESE,6.9,16.1,N/A,,Overcast,110,2013-02-18 02:56:00
6:16 PM,37.4,28.4,70,29.68,10.0,East,3.5,-,N/A,,Overcast,90,2013-02-18 03:16:00
6:36 PM,37.4,28.4,70,29.67,10.0,East,4.6,-,N/A,,Overcast,90,2013-02-18 03:36:00
6:56 PM,39.2,26.6,61,29.66,10.0,SE,16.1,21.9,N/A,,Overcast,130,2013-02-18 03:56:00
7:16 PM,39.2,26.6,61,29.66,10.0,ESE,16.1,21.9,N/A,,Overcast,120,2013-02-18 04:16:00
7:36 PM,39.2,28.4,65,29.65,10.0,ESE,13.8,20.7,N/A,,Overcast,120,2013-02-18 04:36:00
7:56 PM,39.2,26.6,61,29.64,10.0,SE,19.6,26.5,N/A,,Overcast,130,2013-02-18 04:56:00
8:16 PM,39.2,28.4,65,29.63,10.0,SE,17.3,25.3,N/A,,Overcast,130,2013-02-18 05:16:00
8:36 PM,39.2,28.4,65,29.62,10.0,SE,16.1,24.2,N/A,,Overcast,130,2013-02-18 05:36:00
8:56 PM,39.2,28.4,65,29.62,10.0,SE,20.7,26.5,N/A,,Overcast,130,2013-02-18 05:56:00
9:16 PM,41.0,28.4,61,29.62,10.0,SE,18.4,23.0,N/A,,Overcast,140,2013-02-18 06:16:00
9:36 PM,39.2,28.4,65,29.61,10.0,SE,21.9,29.9,N/A,,Overcast,140,2013-02-18 06:36:00
9:56 PM,39.2,28.4,65,29.61,10.0,SE,11.5,24.2,N/A,,Overcast,130,2013-02-18 06:56:00
10:16 PM,39.2,28.4,65,29.61,10.0,SE,16.1,23.0,N/A,,Overcast,140,2013-02-18 07:16:00
10:36 PM,39.2,28.4,65,29.61,10.0,SE,18.4,31.1,N/A,,Overcast,140,2013-02-18 07:36:00
10:56 PM,39.2,28.4,65,29.61,10.0,SE,17.3,-,N/A,,Overcast,140,2013-02-18 07:56:00
11:16 PM,39.2,28.4,65,29.61,10.0,SE,16.1,24.2,N/A,,Overcast,130,2013-02-18 08:16:00
11:36 PM,39.2,28.4,65,29.61,10.0,SE,17.3,24.2,N/A,,Overcast,140,2013-02-18 08:36:00
11:56 PM,39.2,30.2,70,29.61,10.0,SSE,18.4,27.6,N/A,,Overcast,150,2013-02-18 08:56:00